[[{"header":{"parameterUnit":"m.s-1","parameterCategory":1,"la1":30.2991,"la2":30.254,"lo1":-89.0895,"lo2":-89.0444,"dy":0.0017,"dx":0.0017,"nx":28,"ny":28,"refTime":"2025-11-28T03:00:00:Z","depth":0,"parameterNumber":2,"parameterNumberName":"U-component_of_WINDS"},"data":[0,0,0,0,0,0,0,0,0,0,0,0,0,0,0,0,0,0,0,0,0,0,0,0,0,0,0,0,0,0,0,0,0,0,0,0,0,0,0,0,0,0,0,0,0,0,0,0,0,0,0,0,0,0,0,0,0,0,-3.0216,-3.0216,0,-3.0225,-3.0225,-3.0225,-3.017,-3.0168,-3.0167,-3.0165,-3.0174,-3.0176,-3.0177,0,0,0,0,0,0,0,0,0,0,0,0,0,-3.015,-3.0151,-3.0216,-3.0216,-3.0216,-3.0225,-3.0225,-3.0225,-3.017,-3.0168,-3.0166,-3.0164,-3.0173,-3.0176,-3.0178,0,0,0,0,0,0,0,0,0,0,0,0,0,-3.0171,-3.0152,-3.0216,-3.019,-3.0187,-3.0225,-3.0225,-3.0225,-3.017,-3.0168,-3.0166,-3.0164,-3.0173,-3.0175,-3.0178,-3.0241,0,0,-3.0186,-3.0187,0,0,0,0,0,0,0,0,-3.017,-3.0173,-3.0193,-3.0192,-3.0189,-3.0194,-3.0205,-3.0231,-3.0171,-3.0177,-3.0165,-3.0162,-3.0183,-3.0184,-3.0191,-3.0241,-3.0242,-3.0186,-3.0187,-3.0189,-3.0189,0,0,0,0,0,0,0,-3.0168,-3.0173,-3.022,-3.0194,-3.0191,-3.0177,-3.0178,-3.021,-3.0193,-3.0176,-3.0172,-3.0174,-3.0181,-3.0189,-3.0191,-3.0242,-3.0186,-3.0188,-3.019,-3.0191,-3.0344,-3.0347,0,0,0,0,0,0,-3.017,-3.0172,-3.0219,-3.022,-3.0173,-3.018,-3.0181,-3.0195,-3.0192,-3.019,-3.0176,-3.0171,-3.0185,-3.0188,-3.0191,-3.0265,-3.0189,-3.0191,-3.0192,-3.0342,-3.0345,-3.0348,0,0,0,0,0,0,-3.0169,-3.0175,-3.0219,-3.0195,-3.0199,-3.0184,-3.02,-3.0196,-3.0204,-3.0192,-3.0189,-3.0187,-3.0184,-3.0187,-3.0229,-3.0264,-3.0192,-3.0194,-3.0339,-3.0343,-3.0346,-3.0413,0,0,0,0,0,0,-3.0168,-3.0175,-3.0199,-3.0196,-3.0201,-3.0257,-3.0202,-3.0198,-3.0209,-3.0203,-3.0202,-3.0199,-3.0182,-3.0225,-3.0232,-3.0267,-3.0196,-3.0336,-3.0341,-3.0345,-3.0408,-3.0419,-3.0428,0,0,0,0,0,-3.0165,-3.0217,-3.0201,-3.0207,-3.023,-3.0259,-3.0262,-3.0241,-3.0212,-3.0236,-3.0228,-3.0199,-3.0259,-3.023,-3.0237,-3.0273,-3.0333,-3.0339,-3.0345,-3.0403,-3.0417,-3.0428,0,0,0,0,0,0,-3.0225,-3.0217,-3.0198,-3.025,-3.0256,-3.025,-3.0279,-3.0256,-3.027,-3.0264,-3.0238,-3.0238,-3.0284,-3.0282,-3.025,-3.0334,-3.0291,-3.0299,-3.0333,-3.0346,-3.0356,-3.0356,-3.0199,0,0,0,0,0,-3.0245,-3.0269,-3.026,-3.0307,-3.0311,-3.0295,-3.0307,-3.029,-3.0295,-3.0297,-3.0292,-3.0298,-3.0318,-3.0332,-3.035,-3.0407,-3.0406,-3.0435,-3.0446,-3.0454,-3.0461,-3.0491,-3.0504,-3.0367,-3.0367,-3.0366,0,0,-3.0285,-3.0283,-3.03,-3.0319,-3.0322,-3.0347,-3.0297,-3.0327,-3.0345,-3.0301,-3.0341,-3.0338,-3.0342,-3.0392,-3.0414,-3.0392,-3.0498,-3.0461,-3.0468,-3.047,-3.0498,-3.0511,-3.0523,-3.0371,-3.037,-3.0369,0,0,-3.0371,-3.0372,-3.0412,-3.0415,-3.042,-3.0409,-3.0418,-3.0416,-3.0412,-3.0451,-3.0419,-3.044,-3.0476,-3.048,-3.0487,-3.0575,-3.055,-3.0582,-3.0636,-3.0666,-3.0676,-3.0686,-3.0718,-3.0729,-3.0588,-3.0589,-3.0589,0,-3.042,-3.0458,-3.0435,-3.0467,-3.0476,-3.0437,-3.0477,-3.0482,-3.0492,-3.0499,-3.0475,-3.0518,-3.0518,-3.0569,-3.059,-3.0597,-3.0607,-3.0582,-3.0677,-3.0686,-3.0695,-3.0725,-3.0737,-3.0593,-3.0592,-3.0592,-3.0591,0,-3.0519,-3.0545,-3.0577,-3.0588,-3.0601,-3.0636,-3.0618,-3.0634,-3.0616,-3.0608,-3.0648,-3.0647,-3.0664,-3.0675,-3.0657,-3.0723,-3.0709,-3.0681,-3.0638,-3.0712,-3.074,-3.0751,-3.0598,-3.0597,-3.0596,-3.0595,0,0,-3.0643,-3.0641,-3.0653,-3.0658,-3.066,-3.068,-3.0714,-3.073,-3.0745,-3.0753,-3.078,-3.0811,-3.0785,-3.0793,-3.0776,-3.0802,-3.0873,-3.0771,-3.0771,-3.079,-3.0945,-3.0966,-3.098,-3.0856,-3.0858,-3.0859,-3.0945,0,-3.0728,-3.0786,-3.0766,-3.0825,-3.0849,-3.0813,-3.0842,-3.0847,-3.084,-3.0859,-3.0851,-3.0874,-3.0838,-3.0842,-3.0866,-3.0859,-3.0904,-3.0853,-3.0881,-3.0883,-3.0882,-3.0995,-3.1017,-3.1098,-3.0955,-3.0957,-3.0959,0,-3.0835,-3.0848,-3.0909,-3.0907,-3.0917,-3.0944,-3.0957,-3.0976,-3.0981,-3.0974,-3.0983,-3.096,-3.0993,-3.0949,-3.0994,-3.096,-3.0971,-3.0969,-3.0971,-3.0973,-3.0925,-3.1,-3.1123,-3.1135,-3.0975,-3.0974,-3.0973,0,-3.092,-3.0953,-3.0994,-3.0999,-3.0997,-3.1017,-3.1017,-3.1019,-3.1031,-3.1043,-3.105,-3.1065,-3.1074,-3.1087,-3.1069,-3.1039,-3.1117,-3.1071,-3.1112,-3.1112,-3.113,-3.1129,-3.1257,-3.1136,-3.1136,-3.1136,-3.1136,0,-3.1017,-3.1056,-3.1032,-3.1057,-3.11,-3.1077,-3.1119,-3.1116,-3.1118,-3.1141,-3.1111,-3.1134,-3.1109,-3.1129,-3.1115,-3.1155,-3.1159,-3.1154,-3.115,-3.1157,-3.1158,-3.1164,-3.1158,-3.1139,-3.1138,-3.1138,-3.1137,0,-3.112,-3.1105,-3.1147,-3.1143,-3.1142,-3.1174,-3.117,-3.1193,-3.1184,-3.1214,-3.122,-3.1206,-3.1228,-3.1212,-3.1234,-3.1225,-3.1277,-3.1265,-3.1276,-3.1273,-3.1314,-3.1311,-3.145,-3.1468,-3.1336,-3.1337,-3.1338,0,-3.1183,-3.1212,-3.1211,-3.1225,-3.1227,-3.125,-3.1261,-3.1239,-3.1252,-3.1259,-3.1282,-3.1302,-3.1317,-3.1355,-3.1346,-3.1363,-3.1351,-3.1399,-3.1354,-3.136,-3.1352,-3.1351,-3.1354,-3.1408,-3.141,-3.1411,-3.1412,0,-3.1296,-3.1288,-3.1306,-3.1322,-3.1336,-3.1347,-3.1356,-3.1369,-3.1347,-3.1363,-3.1386,-3.1398,-3.1421,-3.1441,-3.1455,-3.1455,-3.143,-3.1427,-3.1437,-3.1445,-3.145,-3.1448,-3.1301,-3.1424,-3.1422,-3.1422,-3.1421,-3.1421,-3.1381,-3.1406,-3.1409,-3.143,-3.1434,-3.1443,-3.1465,-3.1458,-3.1477,-3.1494,-3.148,-3.1507,-3.1511,-3.1527,-3.153,-3.1551,-3.1531,-3.1546,-3.155,-3.1554,-3.156,-3.1446,-3.1553,-3.1553,-3.1553,-3.1552,-3.1552,0,-3.1494,-3.1494,-3.1513,-3.1527,-3.1544,-3.1519,-3.1527,-3.1543,-3.1567,-3.1573,-3.1588,-3.1614,-3.1634,-3.1627,-3.1644,-3.1663,-3.1652,-3.1668,-3.1667,-3.1667,-3.1576,-3.1566,-3.1676,-3.1676,-3.1676,-3.1676,-3.1676,-3.1676,-3.1554,-3.1594,-3.1586,-3.1628,-3.1628,-3.1655,-3.1662,-3.167,-3.1674,-3.1705,-3.1721,-3.1716,-3.1717,-3.1734,-3.1751,-3.1748,-3.1756,-3.1776,-3.177,-3.1686,-3.1673,-3.1662,-3.1652,-3.1778,-3.1778,-3.1858,-3.1859,-3.186]},{"header":{"parameterUnit":"m.s-1","parameterCategory":1,"la1":30.2991,"la2":30.254,"lo1":-89.0895,"lo2":-89.0444,"dy":0.0017,"dx":0.0017,"nx":28,"ny":28,"refTime":"2025-11-28T03:00:00:Z","depth":0,"parameterNumber":3,"parameterNumberName":"V-component_of_WINDS"},"data":[0,0,0,0,0,0,0,0,0,0,0,0,0,0,0,0,0,0,0,0,0,0,0,0,0,0,0,0,0,0,0,0,0,0,0,0,0,0,0,0,0,0,0,0,0,0,0,0,0,0,0,0,0,0,0,0,0,0,-4.0525,-4.0526,0,-4.0599,-4.0599,-4.06,-4.0592,-4.059,-4.0589,-4.0588,-4.0661,-4.0664,-4.0667,0,0,0,0,0,0,0,0,0,0,0,0,0,-4.0375,-4.0378,-4.0525,-4.0526,-4.0527,-4.0598,-4.0599,-4.06,-4.0592,-4.059,-4.0589,-4.0588,-4.066,-4.0663,-4.0667,0,0,0,0,0,0,0,0,0,0,0,0,0,-4.0443,-4.0378,-4.0525,-4.0531,-4.0533,-4.0598,-4.06,-4.0601,-4.0592,-4.059,-4.0589,-4.0587,-4.0659,-4.0663,-4.0668,-4.0731,0,0,-4.0681,-4.0683,0,0,0,0,0,0,0,0,-4.0439,-4.0449,-4.0529,-4.0531,-4.0533,-4.0584,-4.0573,-4.0644,-4.0593,-4.0569,-4.0588,-4.0586,-4.0637,-4.0643,-4.066,-4.0734,-4.0737,-4.0682,-4.0685,-4.0686,-4.0688,0,0,0,0,0,0,0,-4.0435,-4.0446,-4.0554,-4.0531,-4.0533,-4.053,-4.0537,-4.0587,-4.0612,-4.0571,-4.0571,-4.058,-4.0637,-4.0656,-4.0662,-4.0738,-4.0682,-4.0686,-4.0688,-4.069,-4.0868,-4.087,0,0,0,0,0,0,-4.0429,-4.0442,-4.0552,-4.0556,-4.0481,-4.0534,-4.0543,-4.0569,-4.0611,-4.0616,-4.0581,-4.0579,-4.0649,-4.0657,-4.0665,-4.0742,-4.0686,-4.0691,-4.0693,-4.0866,-4.0868,-4.087,0,0,0,0,0,0,-4.0425,-4.0439,-4.0549,-4.0499,-4.0513,-4.0538,-4.0568,-4.0572,-4.0591,-4.0619,-4.0623,-4.0596,-4.0648,-4.0658,-4.0715,-4.0744,-4.0693,-4.0697,-4.0863,-4.0866,-4.0869,-4.0896,0,0,0,0,0,0,-4.0421,-4.0438,-4.0462,-4.05,-4.0515,-4.0598,-4.057,-4.0574,-4.0599,-4.0597,-4.0634,-4.0638,-4.0647,-4.0708,-4.0719,-4.0749,-4.07,-4.0861,-4.0865,-4.0868,-4.0893,-4.09,-4.0905,0,0,0,0,0,-4.0416,-4.0466,-4.0464,-4.0477,-4.0547,-4.06,-4.0609,-4.0619,-4.0601,-4.0626,-4.0644,-4.0637,-4.0739,-4.0714,-4.0726,-4.0758,-4.0859,-4.0864,-4.0868,-4.089,-4.0898,-4.0905,0,0,0,0,0,0,-4.0431,-4.0471,-4.0469,-4.0533,-4.0563,-4.0599,-4.063,-4.0628,-4.0663,-4.066,-4.067,-4.0678,-4.0735,-4.0752,-4.0724,-4.0822,-4.0796,-4.0804,-4.0809,-4.0817,-4.0823,-4.0818,-4.0704,0,0,0,0,0,-4.0442,-4.0482,-4.0515,-4.0568,-4.0584,-4.0605,-4.0628,-4.0633,-4.0665,-4.0677,-4.0699,-4.0729,-4.0768,-4.0793,-4.0831,-4.0895,-4.0903,-4.0923,-4.093,-4.0935,-4.0941,-4.0976,-4.0986,-4.0885,-4.0885,-4.0885,0,0,-4.0464,-4.0492,-4.0516,-4.0572,-4.0596,-4.0637,-4.0615,-4.0659,-4.069,-4.0683,-4.0739,-4.0756,-4.079,-4.0851,-4.0879,-4.0867,-4.097,-4.094,-4.0944,-4.0948,-4.0982,-4.0991,-4.1,-4.0888,-4.0888,-4.0887,0,0,-4.0527,-4.0552,-4.0599,-4.0624,-4.0661,-4.0675,-4.0686,-4.0722,-4.0733,-4.0789,-4.0785,-4.0821,-4.0887,-4.0912,-4.0933,-4.1005,-4.1,-4.1017,-4.1051,-4.1085,-4.1093,-4.11,-4.1126,-4.1135,-4.1023,-4.1023,-4.1023,0,-4.055,-4.0613,-4.0623,-4.0669,-4.0693,-4.069,-4.0738,-4.0761,-4.0808,-4.0825,-4.0811,-4.0895,-4.0917,-4.0984,-4.1002,-4.1019,-4.1032,-4.1013,-4.1091,-4.1098,-4.1105,-4.113,-4.114,-4.1025,-4.1025,-4.1025,-4.1024,0,-4.064,-4.0683,-4.0717,-4.0764,-4.0792,-4.0838,-4.0855,-4.0882,-4.0885,-4.0899,-4.0956,-4.0983,-4.1026,-4.1042,-4.1045,-4.1109,-4.1101,-4.1089,-4.1064,-4.1116,-4.114,-4.115,-4.1028,-4.1027,-4.1026,-4.1026,0,0,-4.0713,-4.0766,-4.0778,-4.08,-4.084,-4.0874,-4.0919,-4.0962,-4.0986,-4.1018,-4.1056,-4.1113,-4.1102,-4.1127,-4.1132,-4.1162,-4.1218,-4.1147,-4.1148,-4.1159,-4.1291,-4.13,-4.131,-4.1215,-4.1216,-4.1218,-4.1288,0,-4.078,-4.0862,-4.0873,-4.0946,-4.0986,-4.0984,-4.1024,-4.1053,-4.1068,-4.1103,-4.1119,-4.1159,-4.1142,-4.1157,-4.1187,-4.1205,-4.1244,-4.12,-4.125,-4.1252,-4.1242,-4.1323,-4.1332,-4.1397,-4.1297,-4.1299,-4.13,0,-4.0869,-4.0905,-4.0982,-4.1018,-4.1035,-4.1071,-4.1111,-4.1145,-4.1178,-4.1187,-4.1214,-4.1216,-4.1262,-4.1235,-4.1299,-4.1269,-4.129,-4.1302,-4.1305,-4.131,-4.1279,-4.133,-4.1418,-4.1428,-4.1314,-4.1313,-4.1312,0,-4.0916,-4.0983,-4.1038,-4.1056,-4.1099,-4.1125,-4.1144,-4.1175,-4.12,-4.1235,-4.1251,-4.129,-4.1312,-4.1342,-4.1354,-4.1333,-4.1418,-4.1392,-4.1426,-4.1426,-4.1444,-4.1443,-4.1536,-4.1457,-4.1457,-4.1457,-4.1457,0,-4.0989,-4.1036,-4.106,-4.1094,-4.1146,-4.1158,-4.1209,-4.1227,-4.1255,-4.1291,-4.1291,-4.1326,-4.1339,-4.1376,-4.1385,-4.1437,-4.1447,-4.1455,-4.1457,-4.1455,-4.1454,-4.1469,-4.1465,-4.146,-4.1459,-4.1458,-4.1458,0,-4.105,-4.1068,-4.1128,-4.1164,-4.1174,-4.1211,-4.1242,-4.1274,-4.1289,-4.1335,-4.1346,-4.1369,-4.1412,-4.1427,-4.1478,-4.1485,-4.1545,-4.1543,-4.1535,-4.1535,-4.1569,-4.1565,-4.1676,-4.1691,-4.1601,-4.1602,-4.1603,0,-4.1096,-4.1132,-4.1173,-4.1198,-4.1218,-4.1258,-4.1284,-4.1297,-4.1324,-4.1364,-4.1392,-4.1434,-4.1469,-4.1537,-4.1558,-4.1597,-4.1596,-4.1632,-4.1602,-4.1599,-4.1597,-4.1595,-4.1599,-4.1638,-4.1639,-4.1639,-4.164,0,-4.1176,-4.1183,-4.1221,-4.1262,-4.1293,-4.1326,-4.1358,-4.1378,-4.1395,-4.1425,-4.147,-4.1497,-4.155,-4.1592,-4.1633,-4.1651,-4.1649,-4.1649,-4.1659,-4.1658,-4.1652,-4.1656,-4.155,-4.1647,-4.1646,-4.1646,-4.1645,-4.1645,-4.1231,-4.1263,-4.1297,-4.1339,-4.1365,-4.1394,-4.1427,-4.1446,-4.1483,-4.1528,-4.1533,-4.1581,-4.1612,-4.1667,-4.1687,-4.1724,-4.1714,-4.1728,-4.1732,-4.1736,-4.1738,-4.1646,-4.1731,-4.1731,-4.1731,-4.1731,-4.1731,0,-4.1311,-4.1332,-4.1371,-4.1416,-4.145,-4.1445,-4.148,-4.1508,-4.155,-4.158,-4.1615,-4.1665,-4.1707,-4.1731,-4.1772,-4.1796,-4.1796,-4.1807,-4.1805,-4.181,-4.1745,-4.1732,-4.1806,-4.1806,-4.1806,-4.1806,-4.1806,-4.1806,-4.1356,-4.1411,-4.1422,-4.1489,-4.1511,-4.1558,-4.1578,-4.1606,-4.163,-4.1687,-4.1721,-4.1737,-4.1765,-4.1808,-4.1845,-4.1851,-4.1866,-4.1878,-4.1883,-4.1822,-4.1814,-4.1807,-4.1795,-4.1881,-4.1881,-4.1944,-4.1945,-4.1945]}]]